Location: ??????
(56.0120°N, 39.1740°E)
Time: 14:57:22
(UTC+00:00)

Cosmos 1703 Rocket - Pass Details

Date: 14 April 2026
Orbit: 598 x 626 km, 82.5° (Epoch: 17 May)

Event Time Altitude Azimuth Distance (km) Brightness Sun altitude
Rises 17:16:32 0° 344° (NNW) 2,879 7.7 -7.0°
Reaches altitude 10° 17:18:49 10° 340° (NNW) 1,966 6.9 -7.3°
Maximum altitude 17:23:02 52° 264° (W) 754 4.4 -7.8°
Drops below altitude 10° 17:27:11 10° 189° (S) 1,939 5.9 -8.3°
Sets 17:29:25 0° 184° (S) 2,835 6.7 -8.6°
